CAPE
1288 1684 1899 1844 1834 1876 1754 1161 1018 983 1057 1030 1199 1292 1633 1628 1695 1659 1607 1606 1335 1288 1217 1082 1218 1527 1239 1119 1060 606 471 385 472 598 577 597 612 622 551 245 448 44 0
1300 1684 1907 1840 1830 1999 1988 1551 1270 1316 1221 1219 1145 1177 1449 1437 1490 1735 1631 1615 1371 1314 1660 1293 1329 1441 1288 932 886 449 609 615 676 743 622 525 342 308 127 142 0 0 0
1421 1715 1858 1805 1912 1998 1964 1690 1518 1557 1487 1333 1659 1573 1246 1427 1244 1436 1691 1769 1899 1624 1600 1513 1542 1480 1374 888 346 794 623 871 626 547 678 473 328 436 500 165 12 690 826
1481 1711 1901 2017 2032 1880 1922 1745 1602 1678 1722 1598 1655 1887 1418 1418 1247 886 1090 1416 1636 1583 1468 1544 1266 1318 1125 946 462 899 889 790 593 211 121 409 405 270 252 27 33 504 502
1367 1667 1927 2009 1941 1829 1903 1814 1665 1607 1638 1660 1454 1772 1915 1697 1773 1726 645 647 921 1391 1482 1573 1158 1339 865 1139 523 496 519 730 562 431 0 136 484 599 0 32 586 300 5
1276 1744 2101 1880 1875 1941 1923 1841 1680 1428 1481 1588 1606 1600 1594 1575 1785 1722 1611 1192 876 785 1220 1466 1059 836 738 1343 638 385 129 312 557 578 429 190 226 679 46 651 866 337 94
1391 1796 1990 2037 1969 1918 1845 1880 1814 1548 1586 1759 1768 1872 1908 1759 1702 1684 1813 1609 1653 926 963 1082 1575 886 1017 942 725 378 118 327 593 310 124 72 266 827 357 613 743 56 631
1185 1719 1957 1969 1915 1959 2039 1973 1784 1636 1706 1879 2040 1964 1929 1723 1707 1466 1578 1658 1524 1646 1041 1065 1045 1497 1423 986 683 509 120 168 764 690 181 140 292 745 441 248 315 357 0
1436 1504 1715 1796 1891 1954 1964 1879 1863 1790 1701 1805 1777 1915 1666 1645 1637 1667 1362 1243 1334 1142 1641 892 919 1224 1307 1198 736 499 294 239 740 501 244 91 134 215 532 273 274 640 0
921 1146 1178 1384 1555 1635 1703 1706 1577 1667 1778 1902 1916 1874 1858 1816 1743 1718 1485 1253 1049 883 914 1087 873 996 919 984 1005 588 30 101 344 186 267 55 0 63 347 5 425 241 105
1073 1083 1137 1175 1176 1069 1257 1514 1580 1562 1529 1486 1695 2159 1708 1678 1513 1534 1506 1079 1265 1099 911 805 949 1216 867 584 835 891 466 11 0 154 177 129 0 194 291 815 293 330 573
1132 1056 1228 1105 1101 1205 1585 1557 1470 1581 1694 1580 1403 1492 1575 1130 1019 1217 1283 987 1181 1290 1231 923 792 1044 1205 717 246 895 457 162 19 96 304 140 0 111 672 984 645 87 162
1529 1553 1611 1419 1411 1501 1680 1572 1274 1280 1239 1448 1679 1180 1204 1112 1026 1070 883 1022 892 1405 1036 1155 829 542 549 584 533 357 239 203 88 244 382 213 0 18 144 628 905 312 71
1633 1649 1729 1613 1678 1649 1715 1695 1346 1244 1297 1015 1108 1199 1136 949 571 549 733 522 478 585 456 101 79 37 28 0 43 266 452 218 13 269 321 533 195 147 389 570 882 686 371
1638 1736 1791 1879 1756 1336 976 551 469 859 1101 496 722 821 551 363 600 450 440 307 331 247 267 105 1 11 0 0 28 43 288 466 209 96 230 684 462 333 414 571 820 872 713
1753 1778 1883 2028 1843 1200 954 747 413 122 104 222 198 255 198 76 491 344 233 161 31 94 48 72 58 0 0 0 26 113 188 519 374 344 416 529 620 434 377 468 451 764 669
1689 1798 1860 1977 1921 1701 1309 1126 927 574 422 199 204 85 45 139 523 318 128 79 3 8 1 0 0 0 0 0 1 35 385 332 363 477 438 438 779 598 450 333 218 434 538
1504 1674 1772 2149 2002 1921 1636 1555 995 444 177 72 69 77 124 384 269 118 110 41 0 59 2 0 0 0 1 0 0 76 284 480 445 391 479 524 498 588 642 601 294 228 216
1688 1762 1925 2297 2126 1980 1645 1334 922 317 126 46 20 13 32 174 162 101 71 14 23 7 0 0 3 28 84 78 103 209 237 332 341 576 380 592 458 540 600 558 421 280 240
1949 2115 2256 2220 2065 1888 1674 1298 756 59 189 120 39 6 0 0 79 95 52 31 32 16 6 9 0 25 36 65 25 0 87 149 133 178 313 463 628 590 574 597 557 376 272
2307 2353 2421 2320 2114 1922 1673 1437 1018 43 43 47 13 22 41 23 84 76 52 93 170 165 117 70 55 62 0 0 51 63 45 110 166 236 206 222 284 557 453 507 361 362 274
2518 2515 2463 2347 2242 1728 1714 1751 1175 171 3 3 20 68 179 81 163 201 208 259 264 234 156 146 139 25 1 0 21 0 0 0 49 126 193 248 268 275 305 447 397 291 195
2664 2583 2613 2682 2502 2054 1818 1419 868 325 40 47 260 498 656 449 488 460 438 327 253 201 145 146 108 56 49 10 13 0 0 0 0 7 57 123 201 169 196 221 256 228 176
2811 2898 2960 2939 2614 2258 1725 1400 903 144 48 324 620 760 1019 910 650 492 311 203 142 108 100 93 99 43 5 0 4 24 9 4 0 0 0 2 60 140 116 84 100 134 60
3170 3192 3101 2749 2551 2254 1719 1221 721 116 499 803 766 763 453 544 421 270 198 97 51 28 31 56 68 55 70 78 22 11 0 14 30 42 10 33 2 1 36 58 44 61 9
3437 3368 3093 2675 2475 2259 1966 1283 1108 850 1129 1014 804 413 514 466 394 211 89 41 7 0 4 0 71 97 66 78 65 80 74 23 3 25 29 15 6 0 1 16 54 22 1
CIN
-32 -21 -7 -14 -30 -26 -41 -86 -95 -90 -79 -77 -64 -54 -28 -21 -12 -10 -10 -0 -0 -0 -0 -0 -0 -0 -0 -0 -0 -3 -8 -3 -0 -0 -0 -0 -0 -0 -0 -3 -1 -14 -0
-67 -19 -9 -25 -24 -16 -21 -49 -71 -62 -64 -63 -63 -52 -34 -34 -22 -2 -9 -3 -0 -0 -0 -0 -0 -0 -0 -2 -0 -3 -0 -0 -0 -0 -0 -1 -9 -4 -22 -16 -0 -0 -0
-57 -22 -15 -26 -17 -13 -19 -37 -45 -39 -41 -44 -21 -19 -43 -32 -39 -22 -3 -0 -0 -0 -0 -0 -0 -0 -0 -0 -9 -4 -0 -0 -1 -9 -3 -14 -15 -2 -0 -11 -3 -0 -0
-73 -41 -24 -13 -10 -17 -18 -31 -34 -24 -17 -23 -11 -0 -19 -24 -36 -61 -30 -7 -0 -0 -2 -0 -0 -0 -0 -0 -9 -0 -0 -1 -3 -13 -27 -14 -4 -10 -6 -1 -7 -0 -0
-86 -51 -21 -15 -15 -18 -13 -19 -25 -27 -17 -17 -17 -2 -0 -3 -2 -6 -65 -61 -46 -3 -0 -0 -0 -0 -4 -0 -13 -13 -13 -4 -3 -6 -0 -22 -12 -2 -0 -35 -0 -6 -4
-89 -39 -11 -19 -18 -13 -11 -15 -22 -41 -26 -13 -9 -10 -7 -7 -2 -3 -4 -12 -31 -37 -5 -0 -10 -12 -15 -0 -14 -15 -29 -9 -5 -13 -24 -22 -45 -16 -15 -1 -0 -5 -40
-97 -49 -22 -14 -14 -12 -18 -17 -24 -35 -17 -7 -5 -0 -0 -1 -1 -0 -0 -0 -1 -15 -16 -9 -0 -20 -12 -13 -15 -21 -23 -12 -10 -28 -42 -44 -48 -18 -29 -7 -0 -34 -0
-150 -88 -43 -28 -23 -17 -12 -14 -25 -39 -29 -11 -0 -0 -0 -0 -0 -5 -3 -0 -2 -0 -7 -3 -2 -0 -1 -16 -19 -25 -32 -17 -8 -6 -26 -44 -29 -20 -25 -36 -15 -11 -0
-113 -101 -83 -58 -36 -27 -17 -23 -21 -18 -24 -17 -12 -0 -1 -1 -0 -0 -4 -7 -5 -10 -0 -8 -3 -0 -0 -8 -22 -24 -34 -25 -19 -30 -39 -46 -31 -39 -25 -34 -34 -0 -0
-148 -148 -142 -102 -82 -67 -55 -45 -50 -43 -30 -12 -10 -7 -3 -0 -0 -0 -3 -5 -11 -15 -15 -10 -9 -1 -8 -17 -16 -23 -45 -42 -39 -49 -40 -48 -0 -19 -37 -11 -25 -34 -39
-138 -142 -142 -131 -123 -130 -96 -61 -44 -48 -48 -49 -29 -9 -24 -14 -14 -4 -6 -9 -1 -6 -10 -25 -18 -2 -14 -36 -31 -27 -25 -15 -0 -39 -41 -40 -0 -43 -45 -6 -33 -32 -6
-114 -131 -121 -130 -120 -112 -71 -66 -57 -28 -23 -32 -38 -26 -26 -52 -49 -19 -10 -7 -4 -1 -0 -2 -15 -5 -2 -29 -58 -30 -50 -63 -75 -69 -43 -42 -0 -23 -20 -6 -17 -71 -57
-83 -96 -90 -102 -99 -87 -58 -60 -79 -69 -57 -33 -19 -33 -28 -35 -41 -36 -30 -24 -20 -2 -1 -1 -6 -33 -34 -26 -31 -54 -58 -66 -70 -54 -42 -42 -0 -55 -48 -24 -2 -45 -82
-75 -66 -74 -84 -83 -91 -68 -59 -56 -51 -38 -53 -44 -31 -38 -40 -73 -74 -46 -62 -58 -33 -46 -110 -109 -159 -168 -0 -100 -74 -52 -63 -81 -57 -62 -37 -48 -60 -47 -29 -5 -15 -48
-74 -63 -70 -82 -76 -87 -114 -155 -135 -76 -50 -89 -57 -40 -59 -71 -51 -73 -73 -72 -67 -96 -95 -105 -60 -169 -0 -0 -158 -134 -86 -48 -58 -63 -72 -29 -36 -50 -52 -40 -19 -7 -18
-71 -63 -72 -82 -78 -100 -98 -102 -118 -157 -130 -99 -90 -68 -59 -94 -41 -68 -72 -84 -51 -149 -159 -102 -109 -0 -0 -0 -156 -118 -89 -61 -37 -42 -44 -47 -33 -42 -50 -33 -18 -19 -18
-82 -71 -74 -74 -78 -78 -85 -79 -81 -58 -53 -51 -38 -67 -96 -60 -34 -55 -81 -87 -38 -172 -15 -7 -2 -0 -0 -0 -13 -139 -60 -47 -34 -26 -32 -48 -50 -37 -47 -47 -47 -27 -18
-99 -88 -83 -69 -63 -57 -59 -67 -79 -82 -79 -64 -42 -57 -50 -29 -40 -66 -68 -95 -0 -133 -104 -0 -0 -0 -25 -0 -0 -96 -63 -35 -35 -25 -21 -30 -50 -47 -48 -44 -52 -47 -44
-105 -103 -96 -67 -57 -65 -83 -90 -90 -148 -187 -147 -129 -98 -36 -43 -50 -69 -87 -117 -119 -142 -0 -0 -145 -170 -138 -130 -93 -78 -43 -27 -34 -23 -23 -21 -36 -40 -51 -45 -52 -50 -38
-115 -93 -81 -76 -82 -99 -90 -99 -130 -257 -182 -142 -129 -83 -0 -0 -47 -64 -87 -89 -120 -123 -90 -119 -16 -144 -126 -92 -101 -0 -72 -45 -46 -43 -37 -27 -26 -29 -31 -43 -46 -46 -39
-121 -108 -93 -90 -93 -116 -103 -79 -92 -240 -224 -198 -191 -104 -69 -95 -61 -81 -85 -82 -84 -66 -59 -62 -80 -109 -1 -0 -102 -75 -56 -46 -49 -46 -48 -49 -48 -32 -30 -31 -39 -49 -62
-132 -115 -99 -90 -107 -125 -95 -73 -96 -233 -69 -93 -221 -161 -95 -107 -85 -74 -65 -50 -41 -34 -37 -49 -63 -56 -8 -0 -34 -0 -0 -0 -66 -62 -64 -53 -47 -54 -44 -21 -63 -75 -81
-143 -111 -99 -89 -96 -115 -115 -106 -154 -242 -311 -224 -101 -49 -43 -41 -30 -28 -32 -35 -31 -32 -35 -27 -26 -31 -30 -14 -21 -0 -0 -0 -0 -17 -90 -91 -66 -53 -57 -53 -63 -88 -103
-134 -113 -90 -91 -103 -121 -147 -120 -121 -226 -227 -136 -54 -42 -17 -15 -16 -26 -22 -32 -50 -57 -46 -50 -38 -38 -9 -0 -11 -43 -22 -39 -0 -0 -0 -16 -89 -62 -55 -67 -94 -120 -133
-111 -106 -88 -97 -117 -110 -140 -141 -166 -236 -122 -69 -48 -24 -27 -22 -26 -32 -35 -58 -93 -103 -95 -52 -28 -26 -32 -32 -52 -34 -1 -43 -44 -10 -22 -53 -85 -0 -44 -15 -58 -83 -154
-105 -99 -71 -89 -123 -113 -108 -134 -107 -83 -33 -35 -38 -61 -39 -31 -45 -37 -62 -81 -82 -0 -45 -0 -60 -40 -32 -27 -33 -43 -26 -25 -7 -13 -4 -60 -45 -0 -0 -57 -16 -33 -0
Wind_Speed
25 25 24 23 22 22 22 22 21 20 20 20 20 20 20 19 20 18 18 17 13 12 15 14 12 16 18 19 17 18 20 23 26 25 25 25 26 28 29 29 29 28 28
26 25 25 23 23 22 22 21 20 19 19 19 20 20 20 20 19 18 16 14 11 10 11 13 13 13 15 16 16 17 21 25 27 23 22 23 27 28 29 29 28 29 28
26 25 23 22 23 22 21 21 21 20 19 18 18 18 19 21 22 24 15 10 8 12 11 11 9 10 9 9 11 16 21 22 23 23 21 20 25 26 28 28 28 28 27
27 25 23 23 22 22 21 22 22 21 19 18 16 16 17 17 19 17 19 22 10 11 14 12 9 7 6 5 3 9 26 23 24 26 25 26 27 26 27 27 27 27 26
26 24 23 23 22 21 21 21 21 21 20 20 19 16 17 16 13 11 9 13 8 8 11 10 9 7 9 11 13 21 27 23 24 24 25 25 26 25 26 25 26 25 26
26 24 22 21 20 20 19 19 21 21 19 18 16 15 16 16 10 11 12 10 9 10 11 11 10 7 11 14 15 19 19 17 18 18 25 25 25 24 24 24 25 24 25
26 23 22 20 19 18 17 18 18 19 18 16 14 12 12 13 11 12 11 11 10 10 9 9 9 8 13 16 17 18 16 17 16 14 24 25 23 22 23 23 23 23 23
24 23 22 21 19 18 17 17 16 16 15 15 14 11 10 10 10 11 13 11 11 11 13 12 11 12 14 17 17 18 18 17 13 15 24 24 22 21 22 21 21 22 22
23 23 22 21 19 18 16 15 14 13 13 12 11 11 10 10 10 10 11 12 11 11 10 13 14 15 16 18 18 18 18 17 15 15 23 23 21 19 21 20 20 20 20
25 23 22 20 19 18 15 15 15 13 12 11 11 10 9 10 9 9 10 10 12 11 10 15 13 15 17 18 20 20 20 17 15 14 6 21 20 17 18 19 18 18 18
23 23 21 19 19 18 17 16 14 13 12 11 10 10 8 8 9 10 12 10 10 14 11 11 11 15 18 20 21 21 21 19 16 15 1 16 16 13 15 16 16 15 16
23 21 20 19 19 18 18 16 14 10 10 11 9 7 7 7 9 10 6 6 16 15 16 14 13 14 16 19 21 22 21 22 21 18 12 11 13 10 11 13 14 13 14
21 20 20 18 18 17 17 15 15 13 9 9 9 6 9 15 21 10 17 10 12 16 16 17 17 16 17 18 20 23 23 23 23 19 17 5 6 6 7 9 11 10 10
20 19 18 18 17 17 16 14 12 11 9 6 6 5 10 16 18 13 8 9 12 15 14 15 16 19 20 20 19 23 25 24 22 21 19 3 3 2 4 5 7 8 6
19 18 17 17 16 15 14 12 10 7 5 4 3 7 9 10 17 14 10 11 12 13 13 15 17 20 21 22 24 25 27 29 26 18 18 9 4 3 3 2 4 5 4
18 17 17 16 15 15 13 12 10 7 6 3 5 6 7 20 18 13 11 15 15 15 22 24 24 24 25 23 28 28 29 29 16 10 17 21 5 5 0 2 1 1 1
17 17 16 16 16 13 12 11 12 12 10 7 4 27 13 17 18 13 13 16 17 16 25 24 26 27 27 23 24 28 29 30 27 20 15 13 8 7 4 2 1 1 2
16 15 16 15 15 13 14 16 17 18 17 14 8 7 9 14 14 16 15 15 15 17 22 26 24 27 24 25 24 29 31 28 31 14 15 15 8 11 5 5 3 2 2
16 15 15 15 14 14 15 18 20 22 22 20 16 8 5 14 10 17 18 21 19 22 23 27 27 22 23 20 23 27 30 27 26 29 22 12 10 8 10 6 7 5 3
15 15 15 15 14 14 15 17 21 22 22 23 20 12 12 5 15 18 21 21 19 21 25 24 24 24 24 25 26 28 29 29 31 32 32 20 16 13 12 10 8 8 5
15 16 15 14 14 14 15 15 17 19 20 19 20 18 17 17 11 23 20 20 19 17 19 17 22 23 26 25 23 25 30 30 32 32 29 9 27 26 11 10 13 16 18
14 15 15 13 12 13 14 14 15 17 17 19 18 18 17 13 15 12 18 14 20 19 16 13 11 20 20 17 19 22 25 24 24 30 30 9 25 25 17 14 14 13 14
14 14 14 13 12 12 14 15 15 16 17 17 16 16 15 14 15 16 16 17 14 16 19 19 18 16 17 17 12 15 17 17 19 20 21 23 21 19 16 13 9 10 10
13 13 12 11 12 12 13 13 12 12 13 14 15 15 16 15 15 14 13 13 15 17 18 18 19 17 15 21 21 11 8 15 16 19 18 19 18 14 13 14 8 9 12
12 12 10 11 11 13 12 12 13 12 12 13 13 14 14 15 14 14 15 15 16 16 16 16 17 17 17 18 16 22 15 3 6 3 17 16 17 17 15 9 14 12 10
11 11 11 10 11 12 12 12 10 11 12 10 12 12 12 12 14 16 15 16 16 16 16 16 17 17 18 18 19 14 6 10 8 6 10 12 12 15 14 14 11 11 10
Wind_Direction
120 116 112 108 102 98 94 93 87 82 76 73 69 66 64 61 62 59 59 53 35 33 44 46 36 53 58 65 60 63 68 78 88 83 80 80 83 98 99 94 95 93 92
115 118 115 109 107 103 99 96 90 85 81 79 75 66 66 67 66 56 48 40 28 15 20 40 39 41 48 53 55 63 76 85 93 79 74 72 91 105 105 104 97 103 94
114 115 110 107 110 106 104 101 99 95 87 81 72 65 71 74 70 86 52 22 1 25 21 19 13 23 16 14 39 64 80 82 82 80 74 117 85 89 103 99 101 99 97
114 113 108 109 112 110 106 111 107 102 92 86 69 61 71 68 74 53 102 85 14 21 35 23 358 342 311 275 284 49 107 93 93 97 92 98 102 93 97 99 100 97 97
112 107 107 108 109 110 107 109 110 108 104 102 91 72 74 67 44 25 355 29 339 328 16 4 2 301 245 225 212 178 129 100 106 132 127 109 114 100 99 100 106 99 107
111 107 105 101 101 102 99 100 110 112 103 95 82 70 71 73 360 350 11 340 315 349 9 20 10 287 236 219 209 193 190 193 188 193 159 125 116 105 101 103 109 102 106
111 108 105 99 94 91 93 97 100 108 106 96 80 60 53 61 18 291 318 311 325 328 304 349 351 310 235 218 211 209 215 203 204 212 124 146 123 106 108 102 103 103 107
107 109 106 106 102 99 96 96 96 97 94 95 88 63 44 26 17 351 292 343 1 306 262 276 291 264 241 224 223 221 217 214 238 226 162 154 130 111 111 105 108 111 106
107 110 112 113 110 105 98 97 92 84 84 72 69 58 46 39 20 6 344 327 344 10 331 283 281 262 245 231 235 230 230 232 245 240 144 158 134 112 121 117 110 112 110
115 113 112 112 112 114 106 107 106 100 93 81 73 60 50 54 40 29 34 349 317 338 352 264 288 270 251 245 239 237 235 242 252 262 16 145 140 112 118 122 111 111 114
121 119 114 113 122 121 121 121 117 115 106 101 88 81 48 6 48 77 94 76 348 294 323 343 327 273 260 254 249 245 244 255 269 279 173 129 131 102 117 121 117 110 116
123 122 115 114 120 125 129 128 121 107 108 116 92 64 33 44 90 96 330 59 273 285 281 294 302 291 280 272 258 254 259 256 259 274 303 112 117 99 106 112 118 113 117
128 122 120 114 116 122 121 128 134 129 114 121 118 68 338 289 261 329 286 324 309 279 279 275 274 290 295 287 273 262 262 263 263 278 289 24 82 51 74 106 122 113 105
124 126 121 117 114 122 116 122 126 131 131 110 127 94 320 290 277 303 337 323 318 292 296 297 287 283 283 279 283 267 258 271 274 278 286 353 33 39 44 95 120 120 94
124 125 126 121 118 111 111 117 113 109 124 83 87 310 298 304 280 297 312 310 310 308 308 304 297 291 284 276 270 268 257 235 263 286 292 307 316 347 344 78 126 129 102
126 125 127 128 126 115 115 97 88 72 44 25 348 320 311 275 282 296 299 296 298 302 278 275 280 286 279 280 264 262 254 230 177 305 296 291 302 314 332 137 148 153 152
128 124 125 132 134 118 112 89 66 51 40 17 142 213 298 268 264 286 297 294 295 302 270 287 287 291 278 282 270 264 260 232 208 291 303 305 302 299 292 202 287 234 201
119 121 119 122 118 99 90 68 54 49 43 37 70 322 292 271 284 279 293 299 312 309 291 283 301 287 269 271 279 266 258 277 268 300 304 301 296 296 276 212 229 226 219
118 118 116 114 107 89 70 59 55 56 57 64 47 12 19 147 300 283 286 287 295 291 291 273 273 278 267 277 278 272 261 279 280 272 292 299 298 285 292 251 213 222 272
119 118 117 112 102 85 66 55 56 62 75 72 71 120 335 13 289 284 283 283 296 300 277 291 278 275 276 272 276 275 274 278 275 274 272 297 299 290 291 289 283 277 248
116 115 119 110 98 86 72 64 63 68 76 91 88 45 47 99 296 194 266 283 297 314 300 263 263 237 234 267 282 283 274 278 265 272 283 303 286 281 292 293 300 298 298
122 119 117 113 95 91 80 74 69 70 82 77 88 85 53 262 259 321 273 319 269 292 317 332 151 297 296 307 304 302 296 297 296 268 279 207 219 286 296 299 299 306 303
128 129 126 112 101 88 79 71 59 56 62 73 79 75 49 8 302 287 298 294 337 314 293 303 307 316 318 315 325 317 318 315 314 311 312 307 302 300 305 299 299 306 307
136 133 124 105 88 84 78 73 69 63 59 67 68 65 40 18 354 341 345 346 329 311 308 311 311 317 323 299 297 320 325 321 320 314 323 328 327 321 324 309 316 311 316
130 126 116 93 74 71 76 67 57 60 47 50 53 49 42 2 16 2 339 333 332 325 326 321 319 315 316 313 318 294 320 18 344 352 320 333 338 332 310 346 306 309 334
121 113 109 84 67 71 63 52 53 45 36 43 27 24 13 10 4 357 344 331 328 323 322 321 317 317 317 318 311 334 41 356 5 12 347 343 348 339 338 337 350 2 358